User: anonymous   Login
Location: Unspecified
(51.0950°N, 12.9690°E)
Time: 04:47:21
(UTC+00:00)
Language:

BEESAT - Orbit

View from above orbital plane
View from above orbital plane
View from above satellite
View from above satellite

Ground track
Ground track

The orbit data is extracted from the following two-line orbital elements,

1 35933U 09051C   24106.61027365  .00001680  00000-0  37186-3 0  9994
2 35933  98.4725 349.6471 0005966 152.1810 207.9708 14.58541748773500
Epoch (UTC): 15 April 2024 14:38:47
Eccentricity: 0.0005966
inclination: 98.4725°
perigee height: 693 km
apogee height: 702 km
right ascension of ascending node: 349.6471°
argument of perigee: 152.1810°
revolutions per day: 14.58541748
mean anomaly at epoch: 207.9708°
orbit number at epoch: 77350

The dashed part of the orbit path shows where the satellite is in the earth's shadow,  

DLR